Home > Weather > Mo i Rana > Past weeks

Flag for Norway Past Weather in Mo i Rana, Norway — Yesterday and Last 2 Weeks

Now
50 °F

Cool.


Feels Like: 48 °F
Forecast: 40 / 58 °F
Wind: 7 mph from Southwest

Location: Nord-Solvaer

Current Time: Aug 30, 2016 at 3:33:36 AM

Latest Report: Aug 30, 2016 at 2:00 AM


Visibility: N/A

Pressure: 29.74 "Hg

Humidity: 90%

Dew Point: 47 °F

Location of Mo i RanaLocation

Past Weather in Mo i Rana — Graph

°F

Mo i Rana Temperature Yesterday

Maximum temperature yesterday: 59 °F (at 2:00 PM)
Minimum temperature yesterday: 49 °F (at 2:00 AM)
Average temperature yesterday: 53 °F

High & Low Weather Summary for the Past Weeks

 TemperatureHumidityPressure
High69 °F (Aug 18, 5:00 PM)98% (Aug 22, 12:00 AM)30.30 "Hg (Aug 22, 12:00 AM)
Low47 °F (Aug 28, 6:00 AM)51% (Aug 28, 5:00 PM)29.29 "Hg (Aug 27, 3:00 AM)
Average55 °F76%30.02 "Hg
* Reported Aug 15 2:00 AM — Aug 30 2:00 AM, Mo i Rana, Weather by CustomWeather, © 2016

Note: Actual official high and low records may vary slightly from our data, if they occured in-between our weather recording intervals... More about our weather records

Advertising

Mo i Rana Weather History for the Previous 24 Hours

Scroll right to see more
 ConditionsComfort  
Time TempWeatherWind HumidityBarometerVisibility
2:00 AM
Tue, Aug 30
50 °FCool.7 mph90%29.74 "HgN/A
1:00 AM51 °FCool.7 mph88%29.75 "HgN/A
12:00 AM51 °FCool.7 mph87%29.76 "HgN/A
11:00 PM
Mon, Aug 29
52 °FCool.6 mph93%29.77 "HgN/A
10:00 PM52 °FCool.6 mph88%29.78 "HgN/A
9:00 PM52 °FCool.5 mph88%29.78 "HgN/A
8:00 PM52 °FCool.2 mph84%29.79 "HgN/A
7:00 PM54 °FCool.3 mph75%29.79 "HgN/A
6:00 PM56 °FCool.3 mph69%29.79 "HgN/A
5:00 PM56 °FCool.2 mph65%29.79 "HgN/A
4:00 PM56 °FCool.5 mph66%29.79 "HgN/A
3:00 PM56 °FCool.3 mph67%29.79 "HgN/A
2:00 PM59 °FRefreshingly cool.2 mph58%29.80 "HgN/A
1:00 PM56 °FCool.3 mph62%29.80 "HgN/A
12:00 PM58 °FCool.1 mph64%29.80 "HgN/A
11:00 AM58 °FCool.1 mph60%29.81 "HgN/A
10:00 AM56 °FCool.3 mph69%29.82 "HgN/A
9:00 AM53 °FCool.8 mph67%29.82 "HgN/A
8:00 AM54 °FCool.1 mph70%29.84 "HgN/A
7:00 AM52 °FCool.1 mph73%29.85 "HgN/A
6:00 AM50 °FCool.5 mph75%29.86 "HgN/A
5:00 AM51 °FCool.8 mph73%29.86 "HgN/A
4:00 AM49 °FCool.3 mph78%29.89 "HgN/A
3:00 AM49 °FCool.2 mph84%29.91 "HgN/A
Weather by CustomWeather, © 2016

See weather overviewHow to use our weather pages